Location: Bauersach School (historical)
(38.0926°N, 89.4806°W)
Time: 03:47:35
(UTC+00:00)

STARLINK-36114 - Pass Details

Date: 11 December 2025
Orbit: 481 x 485 km, 43.0° (Epoch: 21 January)

Event Time Altitude Azimuth Distance (km) Brightness Sun altitude
Exits shadow 11:01:03 17° 183° (S) 1,289 4.6 -23.5°
Drops below altitude 10° 11:05:53 10° 90° (E) 1,660 6.1 -22.6°
Enters shadow 12:04:56 -66° 247° (WSW) 12,177 9.4 -11.4°
Maximum altitude 12:41:40 76° 338° (NNW) 501 2.3 -4.8°
